Regional Weather Roundup
Issued by NWS Midland/Odessa, TX

Skip options and go directly to product.
Home | Oldest Version | Previous Version | Current Version | All | Graphics & Text | Save Text | Print | Product List | Glossary On

Skip product version selection by date and time.   
030
ASUS44 KMAF 020610
RWRMAF
MIDLAND AREA WEATHER ROUNDUP
NATIONAL WEATHER SERVICE MIDLAND TX
100 AM CDT THU OCT 02 2014

...IN SOUTHWEST TEXAS AND SOUTHEAST NEW MEXICO...

CITY           SKY/WX    TMP DP  RH WIND       PRES   REMARKS
ALPINE         CLEAR     62  46  55 CALM      30.01S
ANDREWS        FAIR      72  61  69 SW8       29.86S
ARTESIA        NOT AVBL
BIG SPRING     CLEAR     79  64  59 S14       29.84S
CARLSBAD       CLEAR     60  48  64 NW7       29.84S
DRYDEN           N/A     75  66  73 N7        29.82S
FORT STOCKTON  CLEAR     70  63  78 S8        29.86S
GUAD PASS      CLEAR     63  37  38 SW20      30.00F
HOBBS          CLEAR     63  46  55 W9        29.87S
MARFA          CLEAR     55  45  67 N9        30.01S
MIDLAND AIRPK  CLEAR     77  64  62 S10       29.84S
MIDLAND INTL   CLEAR     77  63  61 S9        29.84S
ODESSA         CLEAR     75  63  66 S13       29.85S
PECOS          CLEAR     65  51  62 SE3       29.82F
PRESIDIO       FAIR      76  49  38 N9        29.84S
SEMINOLE       CLEAR     64  48  56 SW8       29.87R
SNYDER         CLEAR     74  64  69 S9        29.81S
WINK           CLEAR     72  50  45 CALM      29.82S
$$
...OTHER STATIONS IN TEXAS...

CITY           SKY/WX    TMP DP  RH WIND       PRES   REMARKS
ABILENE        CLEAR     81  63  54 S16       29.79R
AMARILLO       CLEAR     59  46  62 SW9       29.81F
AUSTIN         CLOUDY    78  73  84 S12       29.82S
BROWNSVILLE    CLEAR     81  81 100 SE10      29.83F FOG
CORPUS CHRISTI PTCLDY    81  78  91 S9        29.82F
DALLAS FTW     PTCLDY    82  69  64 S17       29.76S
DEL RIO        CLEAR     79  69  71 SE8       29.79S
EL PASO        CLEAR     70  33  25 CALM      29.93R
HOUSTON INT    PTCLDY    79  76  90 S5        29.85S
LUBBOCK        CLEAR     62  49  62 SW3       29.82S
SAN ANGELO     CLEAR     79  64  60 S14       29.80F
SAN ANTONIO    CLOUDY    80  75  84 S14       29.84S
WACO           CLEAR     80  71  74 S17       29.79S
WICHITA FALLS  NOT AVBL
$$
...OTHER LOCATIONS IN NEW MEXICO...

CITY           SKY/WX    TMP DP  RH WIND       PRES   REMARKS
ALAMAGORDO     CLEAR     64  36  34 E5        29.95S
ALBUQUERQUE    PTCLDY    63  36  36 N12       30.01R
CANNON AFB     CLEAR     62  42  47 W3        29.86S
CLOVIS           N/A     55  43  62 W6        29.88F
HOLLOMAN AFB   CLEAR     69  33  26 W10       29.92S
ROSWELL        CLEAR     58  44  60 SW10      29.84S
RUIDOSO        CLEAR     57  30  35 W10G16    30.06F
SANTA FE       PTCLDY    52  34  50 N9        30.04R
TRUTH OR CONSE CLEAR     62  36  37 E5        29.97S
TUCUMCARI      CLEAR     63  43  48 W9        29.84R
$$

USA.gov is the U.S. government's official web portal to all federal, state and local government web resources and services.